FW5157 Weather Reports


time (UTC)temp
C
wind
direction
speed
KPH
gust
KPH
rain 1hr
cm
rain 24hr
cm
rain mn
cm
humidity
%
barometer
mb
20260506073106 9 333 3.2 9.7 0.00 0.00 0.00 77 1012.0
20260506071552 8 331 3.2 8.0 0.00 0.00 0.00 78 1012.0
20260506061552 7 344 3.2 14.5 0.00 0.00 0.00 80 1011.7
20260506044553 7 0 1.6 6.4 0.00 0.00 0.00 81 1011.4
20260506043101 8 327 0.0 8.0 0.00 0.00 0.00 81 1011.3
20260506041556 8 296 0.0 8.0 0.00 0.00 0.00 81 1011.3
20260506040051 8 0 1.6 12.9 0.00 0.00 0.00 81 1011.3
20260506034554 8 0 0.0 9.7 0.00 0.00 0.00 82 1011.2
20260506033106 8 339 0.0 8.0 0.00 0.00 0.00 82 1011.4
20260506031544 8 5 0.0 3.2 0.00 0.00 0.00 82 1011.5
20260506030059 8 0 1.6 6.4 0.00 0.00 0.00 82 1011.3
20260506024545 9 0 0.0 6.4 0.00 0.00 0.00 82 1011.3
20260506023052 9 0 1.6 8.0 0.00 0.00 0.00 82 1011.3
20260506021555 9 338 0.0 8.0 0.00 0.00 0.00 82 1011.4
20260506020045 9 320 1.6 4.8 0.00 0.00 0.00 81 1011.4
20260506014552 9 345 0.0 4.8 0.00 0.00 0.00 81 1011.6
20260506013100 10 348 0.0 4.8 0.00 0.00 0.00 81 1011.5
20260506011615 10 360 0.0 4.8 0.00 0.00 0.00 80 1011.6
20260506010056 10 0 0.0 3.2 0.00 0.00 0.00 80 1011.7
20260506004554 10 355 0.0 4.8 0.00 0.00 0.00 79 1011.8
20260506003057 10 0 0.0 3.2 0.00 0.00 0.00 79 1011.8
20260506001557 10 0 0.0 9.7 0.00 0.00 0.00 79 1011.8
20260506000059 10 316 1.6 8.0 0.00 0.00 0.00 79 1011.7
20260505234552 10 30 0.0 8.0 0.00 0.00 0.00 78 1011.7
20260505233050 11 0 1.6 6.4 0.00 0.00 0.00 78 1011.8
20260505231549 11 339 1.6 8.0 0.00 0.00 0.00 77 1011.7
20260505230059 11 13 0.0 6.4 0.00 0.00 0.00 75 1011.6
20260505224554 12 321 0.0 8.0 0.00 0.00 0.00 74 1011.4
20260505223050 12 351 3.2 12.9 0.00 0.00 0.00 74 1011.4
20260505221603 12 84 0.0 16.1 0.00 0.00 0.00 73 1011.2
20260505220101 12 42 0.0 8.0 0.00 0.00 0.00 73 1011.2
20260505214553 12 0 0.0 4.8 0.00 0.00 0.00 72 1011.2
20260505213045 12 323 0.0 6.4 0.00 0.00 0.00 72 1011.1
20260505211551 12 328 1.6 9.7 0.00 0.00 0.00 71 1011.1
20260505210158 12 0 0.0 9.7 0.00 0.00 0.00 71 1011.1
20260505204557 12 325 0.0 11.3 0.00 0.00 0.00 71 1011.0
20260505203049 13 71 1.6 11.3 0.00 0.00 0.00 71 1011.0
20260505201549 13 67 1.6 8.0 0.00 0.00 0.00 71 1010.9
20260505200045 13 355 0.0 9.7 0.00 0.00 0.00 70 1010.8
20260505194555 13 0 0.0 6.4 0.00 0.00 0.00 70 1010.6
20260505193051 13 0 1.6 6.4 0.00 0.00 0.00 70 1010.3
20260505191550 13 340 1.6 4.8 0.00 0.00 0.00 69 1010.2
20260505190049 13 340 0.0 6.4 0.00 0.00 0.00 69 1010.3
20260505184552 13 324 1.6 8.0 0.00 0.00 0.00 69 1010.2
20260505183054 14 322 1.6 8.0 0.00 0.00 0.00 68 1010.1
20260505181550 14 0 1.6 8.0 0.00 0.00 0.00 68 1010.1
20260505180050 14 0 0.0 6.4 0.00 0.00 0.00 68 1010.2
20260505174553 14 315 0.0 6.4 0.00 0.00 0.00 68 1010.1
20260505173053 14 5 1.6 6.4 0.00 0.00 0.00 69 1010.1
20260505171551 14 326 0.0 6.4 0.00 0.00 0.00 70 1010.1
20260505170050 14 333 0.0 4.8 0.00 0.00 0.00 70 1010.3
20260505164600 14 0 1.6 8.0 0.00 0.00 0.00 69 1010.2
20260505163049 14 339 0.0 8.0 0.00 0.00 0.00 69 1010.2
20260505161555 15 339 1.6 8.0 0.00 0.00 0.00 68 1010.3
20260505153107 15 337 3.2 9.7 0.00 0.00 0.00 65 1010.4
20260505151550 15 340 0.0 4.8 0.00 0.00 0.00 66 1010.4
20260505140104 15 322 3.2 9.7 0.00 0.00 0.00 67 1010.7
20260505124553 15 0 1.6 8.0 0.00 0.00 0.00 63 1011.0
20260505123057 16 91 1.6 6.4 0.00 0.00 0.00 62 1011.0
20260505121550 15 119 1.6 6.4 0.00 0.00 0.00 64 1010.9
20260505120104 15 343 1.6 8.0 0.00 0.00 0.00 66 1011.0
20260505114552 15 327 0.0 6.4 0.00 0.00 0.00 67 1011.1
20260505113111 15 0 1.6 8.0 0.00 0.00 0.00 69 1011.1
20260505111552 14 0 0.0 6.4 0.00 0.00 0.00 70 1011.3
20260505101550 13 19 1.6 8.0 0.00 0.00 0.00 74 1011.7
20260505100051 13 98 1.6 6.4 0.00 0.00 0.00 76 1011.7
20260505094554 13 336 1.6 9.7 0.00 0.00 0.00 77 1011.7
20260505093059 12 342 0.0 6.4 0.00 0.00 0.00 81 1011.6
20260505091554 12 0 1.6 6.4 0.00 0.00 0.00 82 1011.6
20260505090054 12 360 1.6 6.4 0.00 0.00 0.00 83 1011.7
20260505084554 11 0 1.6 6.4 0.00 0.00 0.00 84 1011.8
20260505083051 11 0 1.6 6.4 0.00 0.00 0.00 85 1012.1
20260505081549 11 0 0.0 6.4 0.00 0.00 0.00 85 1012.1
20260505080049 11 338 1.6 6.4 0.00 0.00 0.00 85 1012.1
20260505074552 11 0 0.0 6.4 0.00 0.00 0.00 86 1012.1